[[{"header":{"parameterUnit":"m.s-1","parameterCategory":2,"la1":30.2991,"la2":30.254,"lo1":-89.0895,"lo2":-89.0444,"dy":0.0017,"dx":0.0017,"nx":28,"ny":28,"refTime":"2025-03-13T21:00:00:Z","depth":"0","parameterNumber":2,"parameterNumberName":"U-component_of_CURRENTS"},"data":[0,0,0,0,0,0,0,0,0,0,0,0,0,0,0,0,0,0,0,0,0,0,0,0,0,0,0,0,0,0,0,0,0,0,0,0,0,0,0,0,0,0,0,0,0,0,0,0,0,0,0,0,0,0,0,0,0,0,-0.1897,-0.1897,0,-0.1907,-0.1907,-0.1907,-0.189,-0.1889,-0.1889,-0.1889,-0.1849,-0.1849,-0.1848,0,0,0,0,0,0,0,0,0,0,0,0,0,-0.1831,-0.1833,-0.1897,-0.1897,-0.1898,-0.1907,-0.1907,-0.1907,-0.189,-0.1889,-0.1889,-0.1889,-0.185,-0.1849,-0.1848,0,0,0,0,0,0,0,0,0,0,0,0,0,-0.185,-0.1833,-0.1897,-0.1892,-0.1892,-0.1907,-0.1907,-0.1907,-0.189,-0.1889,-0.1889,-0.1888,-0.185,-0.1849,-0.1848,-0.185,0,0,-0.1844,-0.1844,0,0,0,0,0,0,0,0,-0.1849,-0.1852,-0.1893,-0.1893,-0.1893,-0.1899,-0.1869,-0.1886,-0.189,-0.1888,-0.1889,-0.1888,-0.1864,-0.1861,-0.1861,-0.1848,-0.1847,-0.1844,-0.1843,-0.1843,-0.1843,0,0,0,0,0,0,0,-0.1848,-0.1851,-0.1898,-0.1893,-0.1893,-0.1879,-0.1881,-0.1872,-0.1875,-0.1888,-0.1887,-0.1893,-0.1863,-0.1862,-0.186,-0.1846,-0.1844,-0.1843,-0.1842,-0.1842,-0.1821,-0.1821,0,0,0,0,0,0,-0.1855,-0.1851,-0.1898,-0.1899,-0.1872,-0.1881,-0.1883,-0.1895,-0.1876,-0.1874,-0.1894,-0.1892,-0.1864,-0.1861,-0.1858,-0.186,-0.1843,-0.1842,-0.1841,-0.1821,-0.1821,-0.1821,0,0,0,0,0,0,-0.1853,-0.1859,-0.1897,-0.1876,-0.1881,-0.1883,-0.1896,-0.1896,-0.1898,-0.1882,-0.1878,-0.1897,-0.1864,-0.186,-0.1851,-0.1858,-0.1841,-0.184,-0.1821,-0.1821,-0.1821,-0.1862,0,0,0,0,0,0,-0.1851,-0.1859,-0.1866,-0.1877,-0.1882,-0.1911,-0.1897,-0.1896,-0.1903,-0.1902,-0.1883,-0.1879,-0.1863,-0.1853,-0.185,-0.1856,-0.1839,-0.1821,-0.1821,-0.1821,-0.1861,-0.1864,-0.1867,0,0,0,0,0,-0.1849,-0.1865,-0.1867,-0.1872,-0.1894,-0.1912,-0.1913,-0.1911,-0.1904,-0.1909,-0.1893,-0.188,-0.1852,-0.1852,-0.1849,-0.1855,-0.1821,-0.1821,-0.1821,-0.186,-0.1863,-0.1867,0,0,0,0,0,0,-0.1836,-0.1865,-0.1867,-0.189,-0.1902,-0.191,-0.1915,-0.1916,-0.1908,-0.1903,-0.1884,-0.1879,-0.1872,-0.1858,-0.1858,-0.1848,-0.1833,-0.1833,-0.1864,-0.1867,-0.187,-0.1878,-0.1839,0,0,0,0,0,-0.184,-0.1857,-0.188,-0.1894,-0.1904,-0.191,-0.1916,-0.1918,-0.1916,-0.1913,-0.19,-0.1883,-0.1871,-0.1865,-0.185,-0.1849,-0.1849,-0.1849,-0.1851,-0.1854,-0.1858,-0.1865,-0.1869,-0.1822,-0.1822,-0.1822,0,0,-0.1835,-0.1855,-0.1862,-0.1892,-0.19,-0.1919,-0.1912,-0.1925,-0.1936,-0.1909,-0.1911,-0.1893,-0.1872,-0.1867,-0.1862,-0.1856,-0.187,-0.1854,-0.1857,-0.1859,-0.1866,-0.187,-0.1875,-0.1822,-0.1822,-0.1822,0,0,-0.1836,-0.1856,-0.1872,-0.1891,-0.1914,-0.1923,-0.1931,-0.1944,-0.1944,-0.1947,-0.1927,-0.1915,-0.19,-0.1886,-0.1877,-0.1888,-0.1884,-0.1882,-0.1906,-0.1913,-0.1918,-0.1921,-0.1941,-0.1947,-0.1885,-0.1886,-0.1886,0,-0.1827,-0.1856,-0.1877,-0.1902,-0.1918,-0.1929,-0.195,-0.1956,-0.1961,-0.1965,-0.1951,-0.1931,-0.1909,-0.1908,-0.1906,-0.1895,-0.1904,-0.1897,-0.1919,-0.1922,-0.1925,-0.1945,-0.195,-0.1888,-0.1887,-0.1887,-0.1887,0,-0.1842,-0.1869,-0.1881,-0.1918,-0.194,-0.1958,-0.1981,-0.1992,-0.1991,-0.1996,-0.1995,-0.1967,-0.1956,-0.1946,-0.1927,-0.1937,-0.194,-0.1922,-0.1914,-0.1933,-0.1952,-0.1957,-0.189,-0.189,-0.1889,-0.1889,0,0,-0.1805,-0.1878,-0.1879,-0.191,-0.1952,-0.1974,-0.1996,-0.2022,-0.205,-0.2035,-0.2061,-0.202,-0.201,-0.1998,-0.1975,-0.1976,-0.2002,-0.1961,-0.196,-0.1988,-0.2035,-0.2034,-0.2039,-0.1993,-0.1994,-0.1994,-0.2045,0,-0.1805,-0.1857,-0.1892,-0.194,-0.1972,-0.2003,-0.2034,-0.206,-0.2075,-0.2105,-0.2076,-0.2085,-0.203,-0.2031,-0.2021,-0.2012,-0.2014,-0.199,-0.2005,-0.2006,-0.2008,-0.2043,-0.2015,-0.2057,-0.2049,-0.205,-0.205,0,-0.1801,-0.1843,-0.1887,-0.1974,-0.1991,-0.2016,-0.2078,-0.2107,-0.2149,-0.2164,-0.2162,-0.2156,-0.2147,-0.2102,-0.2089,-0.208,-0.2057,-0.2044,-0.2046,-0.2032,-0.2013,-0.2033,-0.2065,-0.2061,-0.2057,-0.2057,-0.2056,0,-0.1764,-0.1841,-0.1878,-0.1903,-0.1994,-0.2014,-0.2054,-0.2109,-0.2155,-0.2195,-0.2234,-0.2224,-0.2225,-0.2196,-0.2147,-0.213,-0.2144,-0.2119,-0.2096,-0.2097,-0.2068,-0.2065,-0.2102,-0.211,-0.2109,-0.2109,-0.2109,0,-0.1752,-0.1784,-0.1863,-0.1885,-0.1946,-0.2003,-0.2071,-0.2111,-0.2185,-0.2241,-0.225,-0.2281,-0.2247,-0.2246,-0.2194,-0.2165,-0.2176,-0.2114,-0.2111,-0.2082,-0.208,-0.2069,-0.2058,-0.2111,-0.2111,-0.211,-0.211,0,-0.1705,-0.1755,-0.181,-0.1898,-0.193,-0.1964,-0.2081,-0.2134,-0.2202,-0.2275,-0.2289,-0.2337,-0.2338,-0.2309,-0.2279,-0.2229,-0.2177,-0.2177,-0.2152,-0.2146,-0.2127,-0.2119,-0.2129,-0.2073,-0.2186,-0.2187,-0.2187,0,-0.1687,-0.1706,-0.1803,-0.1842,-0.1877,-0.1952,-0.2011,-0.2113,-0.2169,-0.2292,-0.2314,-0.2365,-0.238,-0.2362,-0.2302,-0.2256,-0.219,-0.2188,-0.214,-0.2138,-0.2127,-0.2101,-0.205,-0.2126,-0.2126,-0.2125,-0.2125,0,-0.1649,-0.1675,-0.1722,-0.1799,-0.1858,-0.1939,-0.2018,-0.2072,-0.2185,-0.2263,-0.2338,-0.2373,-0.2395,-0.2355,-0.2309,-0.2251,-0.2163,-0.2183,-0.2183,-0.2091,-0.2063,-0.2004,-0.2092,-0.2123,-0.2124,-0.2124,-0.2124,-0.2124,-0.1614,-0.1636,-0.1693,-0.1761,-0.1825,-0.1881,-0.1893,-0.1996,-0.2077,-0.2151,-0.2272,-0.2303,-0.2354,-0.2304,-0.2262,-0.2199,-0.2162,-0.2131,-0.2127,-0.2106,-0.2033,-0.2128,-0.2151,-0.2151,-0.2151,-0.2152,-0.2152,0,-0.1586,-0.1615,-0.1664,-0.1721,-0.1732,-0.1798,-0.1867,-0.184,-0.1876,-0.2024,-0.2098,-0.2203,-0.2215,-0.2233,-0.2229,-0.2161,-0.2084,-0.2099,-0.2052,-0.2002,-0.2097,-0.2075,-0.208,-0.208,-0.208,-0.208,-0.208,-0.208,-0.158,-0.1604,-0.1626,-0.1611,-0.163,-0.1585,-0.1584,-0.157,-0.1621,-0.1686,-0.1791,-0.1886,-0.1981,-0.2257,-0.223,-0.215,-0.2064,-0.2027,-0.199,-0.207,-0.2072,-0.2075,-0.2053,-0.2052,-0.2052,-0.1855,-0.1853,-0.1852]},{"header":{"parameterUnit":"m.s-1","parameterCategory":2,"la1":30.2991,"la2":30.254,"lo1":-89.0895,"lo2":-89.0444,"dy":0.0017,"dx":0.0017,"nx":28,"ny":28,"refTime":"2025-03-13T21:00:00:Z","depth":"0","parameterNumber":3,"parameterNumberName":"V-component_of_CURRENTS"},"data":[0,0,0,0,0,0,0,0,0,0,0,0,0,0,0,0,0,0,0,0,0,0,0,0,0,0,0,0,0,0,0,0,0,0,0,0,0,0,0,0,0,0,0,0,0,0,0,0,0,0,0,0,0,0,0,0,0,0,-0.0016,-0.0015,0,0.0049,0.005,0.005,0.0091,0.0091,0.0092,0.0092,0.0166,0.0168,0.0169,0,0,0,0,0,0,0,0,0,0,0,0,0,-0.0058,-0.0057,-0.0016,-0.0015,-0.0014,0.0049,0.005,0.0051,0.0091,0.0091,0.0092,0.0092,0.0165,0.0167,0.017,0,0,0,0,0,0,0,0,0,0,0,0,0,-0.0021,-0.0057,-0.0016,0.0014,0.0017,0.0049,0.005,0.0051,0.0091,0.0091,0.0092,0.0092,0.0165,0.0167,0.017,0.0178,0,0,0.0178,0.0179,0,0,0,0,0,0,0,0,-0.0024,-0.002,0.0009,0.0012,0.0016,0.0063,0.0062,0.0094,0.0091,0.0063,0.0092,0.0092,0.0132,0.0138,0.0148,0.0181,0.0184,0.0178,0.018,0.0181,0.0181,0,0,0,0,0,0,0,-0.0026,-0.0022,0.0009,0.001,0.0014,0.004,0.0046,0.0069,0.0094,0.0065,0.0068,0.0076,0.0134,0.0146,0.015,0.0185,0.0178,0.018,0.0182,0.0183,0.0272,0.0272,0,0,0,0,0,0,-0.0036,-0.0025,0.0007,0.0011,-0.0003,0.0041,0.0046,0.0047,0.0094,0.0101,0.0076,0.0078,0.0141,0.0147,0.0153,0.0191,0.0181,0.0183,0.0185,0.0271,0.0272,0.0273,0,0,0,0,0,0,-0.0037,-0.0034,0.0005,-0.0004,0.0003,0.0041,0.0041,0.0048,0.006,0.0102,0.011,0.0081,0.0141,0.0149,0.0178,0.0193,0.0184,0.0187,0.027,0.0271,0.0272,0.0249,0,0,0,0,0,0,-0.0039,-0.0035,-0.0041,-0.0005,0.0003,0.0019,0.0041,0.0049,0.0065,0.0068,0.0109,0.0116,0.0142,0.0174,0.0181,0.0196,0.0189,0.0269,0.027,0.0272,0.0249,0.025,0.025,0,0,0,0,0,-0.0041,-0.0052,-0.0042,-0.0038,-0.0006,0.0018,0.0025,0.0054,0.0064,0.0066,0.01,0.0115,0.0189,0.0177,0.0184,0.0201,0.0268,0.027,0.0272,0.0249,0.025,0.025,0,0,0,0,0,0,-0.0076,-0.0048,-0.0036,-0.0039,-0.0014,0.0025,0.0028,0.0049,0.0077,0.0079,0.0119,0.0128,0.0162,0.0183,0.0168,0.0233,0.0234,0.0237,0.0214,0.0215,0.0216,0.0218,0.0191,0,0,0,0,0,-0.0086,-0.0087,-0.0053,-0.0056,-0.0046,-0.001,0.0002,0.0023,0.0054,0.0066,0.0098,0.0136,0.0175,0.0195,0.0226,0.0254,0.0281,0.0274,0.0274,0.0274,0.0283,0.0335,0.0341,0.0279,0.0279,0.0279,0,0,-0.0101,-0.0086,-0.0087,-0.0064,-0.0043,-0.0028,-0.0002,0.0013,0.0033,0.0069,0.0099,0.0134,0.0182,0.0219,0.0237,0.0239,0.0304,0.0277,0.0276,0.0285,0.0337,0.0343,0.0349,0.028,0.028,0.0279,0,0,-0.013,-0.0118,-0.0127,-0.0106,-0.0078,-0.005,-0.0047,-0.0008,0.0016,0.0046,0.0087,0.0134,0.0175,0.0229,0.0258,0.0282,0.0302,0.0285,0.0293,0.0342,0.0348,0.0353,0.038,0.0388,0.0288,0.0288,0.0288,0,-0.015,-0.0153,-0.0125,-0.0122,-0.0105,-0.0061,-0.0056,-0.0024,0.0022,0.0049,0.005,0.0149,0.0188,0.0261,0.0273,0.0285,0.0301,0.0282,0.0342,0.0348,0.0353,0.0381,0.0389,0.0287,0.0287,0.0288,0.0288,0,-0.0179,-0.0177,-0.018,-0.0157,-0.0135,-0.0126,-0.0074,-0.0047,-0.0015,0.0026,0.0092,0.0151,0.0214,0.0237,0.0262,0.033,0.0323,0.0331,0.0336,0.0358,0.0385,0.0395,0.0286,0.0286,0.0287,0.0287,0,0,-0.0229,-0.0206,-0.0206,-0.0203,-0.0152,-0.0141,-0.0096,-0.0042,-0.0016,0.0044,0.0089,0.0178,0.0213,0.0251,0.0296,0.0348,0.0402,0.0352,0.0355,0.0371,0.0489,0.0528,0.0542,0.041,0.0412,0.0414,0.0487,0,-0.0259,-0.0273,-0.0238,-0.0235,-0.0234,-0.017,-0.0137,-0.0078,-0.0023,0.0029,0.0122,0.0172,0.0218,0.0241,0.0307,0.0378,0.0428,0.038,0.0473,0.0476,0.0502,0.0556,0.0637,0.0713,0.0496,0.0498,0.0499,0,-0.0293,-0.0297,-0.0307,-0.0279,-0.0271,-0.0255,-0.0191,-0.0156,-0.0055,-0.0014,0.0074,0.0137,0.0245,0.026,0.0411,0.0372,0.0431,0.0483,0.0487,0.0542,0.0535,0.0661,0.0739,0.0932,0.0514,0.0513,0.0512,0,-0.0348,-0.034,-0.0354,-0.0344,-0.0303,-0.0287,-0.0258,-0.0171,-0.0147,-0.0041,-0.0014,0.0124,0.0181,0.0291,0.0417,0.0408,0.0562,0.0563,0.0656,0.0657,0.0759,0.0767,0.1034,0.0663,0.0662,0.0662,0.0662,0,-0.0389,-0.0398,-0.0388,-0.0395,-0.0413,-0.0352,-0.0345,-0.029,-0.0216,-0.0185,-0.005,0.0006,0.0189,0.0304,0.041,0.0572,0.0562,0.0677,0.0694,0.0751,0.0758,0.0954,0.0996,0.0665,0.0664,0.0664,0.0663,0,-0.0441,-0.0433,-0.0456,-0.0441,-0.0443,-0.0456,-0.0431,-0.0429,-0.0336,-0.029,-0.0261,-0.0082,0.0092,0.0269,0.0455,0.0562,0.0813,0.0754,0.0801,0.0824,0.1098,0.1133,0.1336,0.1419,0.0884,0.0885,0.0887,0,-0.0466,-0.0485,-0.0514,-0.0555,-0.0553,-0.0567,-0.0586,-0.0508,-0.0498,-0.0342,-0.0332,-0.0135,0.0025,0.033,0.0567,0.079,0.0888,0.0962,0.098,0.1155,0.1206,0.1203,0.1257,0.1096,0.1099,0.1102,0.1104,0,-0.0511,-0.0526,-0.0556,-0.0654,-0.0696,-0.0733,-0.0739,-0.0746,-0.0639,-0.0555,-0.0407,-0.0252,0.0106,0.045,0.0754,0.0879,0.1108,0.1017,0.1209,0.1416,0.1422,0.1495,0.0981,0.1125,0.1123,0.1122,0.112,0.112,-0.0546,-0.0595,-0.0659,-0.0753,-0.0821,-0.0885,-0.0912,-0.0879,-0.0831,-0.0658,-0.0476,-0.0136,0.0372,0.0853,0.0989,0.1385,0.1286,0.1516,0.1545,0.1528,0.1624,0.1145,0.1298,0.1297,0.1296,0.1295,0.1294,0,-0.0576,-0.0653,-0.0759,-0.0866,-0.0974,-0.0976,-0.1011,-0.101,-0.0946,-0.0647,-0.0426,0.029,0.0778,0.122,0.1746,0.1933,0.1938,0.2019,0.2077,0.2107,0.1726,0.1756,0.2004,0.2004,0.2004,0.2003,0.2003,0.2003,-0.0595,-0.0702,-0.0776,-0.0977,-0.1064,-0.1161,-0.1182,-0.1127,-0.0929,-0.0471,0.0032,0.0422,0.1103,0.1946,0.243,0.2445,0.259,0.2548,0.2598,0.2395,0.2352,0.2311,0.2358,0.2727,0.2727,0.3001,0.3004,0.3006]}],[{"header":{"parameterUnit":"m.s-1","parameterCategory":2,"la1":30.2991,"la2":30.254,"lo1":-89.0895,"lo2":-89.0444,"dy":0.0017,"dx":0.0017,"nx":28,"ny":28,"refTime":"2025-03-13T21:00:00:Z","depth":"2","parameterNumber":2,"parameterNumberName":"U-component_of_CURRENTS"},"data":[0,0,0,0,0,0,0,0,0,0,0,0,0,0,0,0,0,0,0,0,0,0,0,0,0,0,0,0,0,0,0,0,0,0,0,0,0,0,0,0,0,0,0,0,0,0,0,0,0,0,0,0,0,0,0,0,0,0,-0.184,-0.184,0,-0.1851,-0.1851,-0.185,-0.1836,-0.1835,-0.1835,-0.1835,-0.1796,-0.1795,-0.1795,0,0,0,0,0,0,0,0,0,0,0,0,0,-0.1775,-0.1776,-0.184,-0.184,-0.1841,-0.1851,-0.1851,-0.185,-0.1836,-0.1835,-0.1835,-0.1835,-0.1796,-0.1796,-0.1795,0,0,0,0,0,0,0,0,0,0,0,0,0,-0.1794,-0.1777,-0.184,-0.1837,-0.1837,-0.1851,-0.1851,-0.185,-0.1836,-0.1835,-0.1835,-0.1834,-0.1797,-0.1796,-0.1794,-0.1796,0,0,-0.1791,-0.179,0,0,0,0,0,0,0,0,-0.1793,-0.1796,-0.1837,-0.1837,-0.1837,-0.1844,-0.1814,-0.1831,-0.1836,-0.1833,-0.1835,-0.1834,-0.181,-0.1807,-0.1807,-0.1794,-0.1792,-0.1791,-0.179,-0.179,-0.1789,0,0,0,0,0,0,0,-0.1792,-0.1795,-0.1841,-0.1837,-0.1837,-0.1824,-0.1826,-0.1817,-0.182,-0.1833,-0.1833,-0.1839,-0.1809,-0.1808,-0.1806,-0.1792,-0.1791,-0.179,-0.1789,-0.1789,-0.1768,-0.1768,0,0,0,0,0,0,-0.1798,-0.1794,-0.1841,-0.1842,-0.1817,-0.1826,-0.1828,-0.184,-0.1822,-0.182,-0.1839,-0.1838,-0.181,-0.1807,-0.1805,-0.1806,-0.179,-0.1789,-0.1788,-0.1767,-0.1768,-0.1768,0,0,0,0,0,0,-0.1797,-0.1803,-0.1841,-0.182,-0.1824,-0.1828,-0.1841,-0.184,-0.1843,-0.1827,-0.1823,-0.1843,-0.181,-0.1806,-0.1797,-0.1804,-0.1788,-0.1787,-0.1767,-0.1768,-0.1768,-0.1808,0,0,0,0,0,0,-0.1795,-0.1802,-0.181,-0.1821,-0.1826,-0.1855,-0.1842,-0.1841,-0.1849,-0.1847,-0.1829,-0.1825,-0.1809,-0.1799,-0.1796,-0.1802,-0.1786,-0.1767,-0.1767,-0.1768,-0.1807,-0.181,-0.1813,0,0,0,0,0,-0.1793,-0.1808,-0.1811,-0.1816,-0.1838,-0.1855,-0.1857,-0.1855,-0.1849,-0.1855,-0.1839,-0.1826,-0.1798,-0.1799,-0.1795,-0.1801,-0.1767,-0.1767,-0.1768,-0.1806,-0.1809,-0.1812,0,0,0,0,0,0,-0.1781,-0.1809,-0.1811,-0.1833,-0.1846,-0.1854,-0.1859,-0.186,-0.1854,-0.1849,-0.183,-0.1825,-0.1818,-0.1804,-0.1805,-0.1795,-0.178,-0.178,-0.181,-0.1813,-0.1816,-0.1825,-0.1785,0,0,0,0,0,-0.1784,-0.1801,-0.1824,-0.1838,-0.1848,-0.1854,-0.186,-0.1863,-0.1861,-0.1858,-0.1846,-0.183,-0.1817,-0.1811,-0.1797,-0.1795,-0.1796,-0.1795,-0.1798,-0.1801,-0.1804,-0.1813,-0.1818,-0.1769,-0.1769,-0.1769,0,0,-0.1779,-0.1799,-0.1806,-0.1836,-0.1844,-0.1863,-0.1856,-0.1871,-0.188,-0.1854,-0.1856,-0.1839,-0.1818,-0.1813,-0.1809,-0.1803,-0.1817,-0.1801,-0.1803,-0.1806,-0.1814,-0.1819,-0.1823,-0.1769,-0.1769,-0.1769,0,0,-0.1781,-0.1801,-0.1817,-0.1836,-0.1859,-0.1868,-0.1876,-0.1889,-0.1889,-0.1892,-0.1873,-0.1862,-0.1846,-0.1833,-0.1824,-0.1834,-0.183,-0.1829,-0.1853,-0.1861,-0.1866,-0.187,-0.1889,-0.1894,-0.1832,-0.1832,-0.1832,0,-0.1773,-0.1801,-0.1821,-0.1846,-0.1862,-0.1873,-0.1893,-0.19,-0.1906,-0.1909,-0.1896,-0.1877,-0.1855,-0.1854,-0.1852,-0.1841,-0.1851,-0.1843,-0.1867,-0.187,-0.1874,-0.1892,-0.1898,-0.1834,-0.1834,-0.1834,-0.1833,0,-0.1788,-0.1814,-0.1826,-0.1862,-0.1883,-0.1902,-0.1923,-0.1934,-0.1935,-0.194,-0.1939,-0.1912,-0.1903,-0.1893,-0.1873,-0.1885,-0.1887,-0.187,-0.1862,-0.1881,-0.19,-0.1904,-0.1837,-0.1836,-0.1836,-0.1835,0,0,-0.1752,-0.1823,-0.1824,-0.1854,-0.1895,-0.1916,-0.1938,-0.1963,-0.199,-0.1976,-0.2003,-0.1964,-0.1955,-0.1943,-0.1922,-0.1924,-0.195,-0.1909,-0.1909,-0.1936,-0.1985,-0.198,-0.1985,-0.1943,-0.1944,-0.1944,-0.1993,0,-0.1752,-0.1803,-0.1837,-0.1882,-0.1913,-0.1943,-0.1973,-0.1998,-0.2014,-0.2044,-0.2017,-0.2027,-0.1975,-0.1977,-0.1969,-0.1961,-0.1963,-0.1939,-0.1955,-0.1956,-0.1955,-0.199,-0.1812,-0.184,-0.1998,-0.1999,-0.1999,0,-0.1748,-0.1788,-0.1831,-0.1914,-0.1931,-0.1955,-0.2015,-0.2043,-0.2085,-0.21,-0.2101,-0.2097,-0.2091,-0.2048,-0.2038,-0.2029,-0.2006,-0.1995,-0.1996,-0.198,-0.196,-0.1843,-0.1843,-0.2007,-0.2006,-0.2006,-0.2005,0,-0.1712,-0.1786,-0.1821,-0.1846,-0.1933,-0.1953,-0.1991,-0.2046,-0.209,-0.2132,-0.2171,-0.2165,-0.2168,-0.2142,-0.2095,-0.208,-0.2095,-0.2071,-0.2045,-0.2045,-0.189,-0.1875,-0.2063,-0.2063,-0.2063,-0.2063,-0.2063,0,-0.17,-0.173,-0.1807,-0.1828,-0.1886,-0.1942,-0.2008,-0.2047,-0.2121,-0.2176,-0.2188,-0.222,-0.2191,-0.219,-0.2141,-0.2112,-0.2126,-0.2062,-0.206,-0.1901,-0.1887,-0.2021,-0.2015,-0.2065,-0.2064,-0.2064,-0.2064,0,-0.1653,-0.1702,-0.1755,-0.1839,-0.187,-0.1903,-0.2018,-0.2069,-0.2138,-0.2211,-0.2226,-0.2275,-0.2277,-0.225,-0.2223,-0.2175,-0.2146,-0.2123,-0.1947,-0.1924,-0.2085,-0.2081,-0.213,-0.213,-0.213,-0.213,-0.2131,0,-0.1636,-0.1654,-0.1747,-0.1784,-0.1818,-0.1891,-0.1948,-0.2049,-0.2105,-0.2228,-0.2251,-0.2301,-0.2312,-0.2296,-0.2205,-0.2152,-0.2162,-0.1973,-0.1907,-0.2101,-0.2094,-0.2089,-0.2084,-0.1718,-0.1714,-0.1712,-0.171,0,-0.1597,-0.1623,-0.1667,-0.1741,-0.1798,-0.1877,-0.1955,-0.2009,-0.2122,-0.2195,-0.227,-0.2301,-0.2292,-0.216,-0.2099,-0.2028,-0.1975,-0.1923,-0.2157,-0.1741,-0.1719,-0.171,-0.1718,-0.1686,-0.1689,-0.169,-0.1691,-0.1692,-0.1562,-0.1583,-0.1638,-0.1702,-0.1765,-0.182,-0.1831,-0.1917,-0.1993,-0.2025,-0.2162,-0.2116,-0.211,-0.1921,-0.1846,-0.176,-0.1885,-0.1779,-0.1783,-0.1791,-0.1748,-0.1729,-0.169,-0.1692,-0.1694,-0.1696,-0.1697,0,-0.1518,-0.1562,-0.1608,-0.1663,-0.1658,-0.1738,-0.1806,-0.1751,-0.1762,-0.1824,-0.1858,-0.1692,-0.165,-0.163,-0.1476,-0.1485,-0.1421,-0.1422,-0.1321,-0.1346,-0.1368,-0.1299,-0.1124,-0.1122,-0.112,-0.1119,0,0,-0.1508,-0.1521,-0.1542,-0.1523,-0.1556,-0.1491,-0.149,-0.1429,-0.1403,-0.134,-0.1319,-0.1465,-0.1544,-0.1296,-0.128,-0.1169,-0.1225,-0.1111,-0.1568,-0.1467,-0.1486,-0.1576,-0.1499,0,0,0,0,0]},{"header":{"parameterUnit":"m.s-1","parameterCategory":2,"la1":30.2991,"la2":30.254,"lo1":-89.0895,"lo2":-89.0444,"dy":0.0017,"dx":0.0017,"nx":28,"ny":28,"refTime":"2025-03-13T21:00:00:Z","depth":"2","parameterNumber":3,"parameterNumberName":"V-component_of_CURRENTS"},"data":[0,0,0,0,0,0,0,0,0,0,0,0,0,0,0,0,0,0,0,0,0,0,0,0,0,0,0,0,0,0,0,0,0,0,0,0,0,0,0,0,0,0,0,0,0,0,0,0,0,0,0,0,0,0,0,0,0,0,-0.0067,-0.0067,0,-0.0004,-0.0003,-0.0003,0.0038,0.0038,0.0038,0.0038,0.011,0.0112,0.0114,0,0,0,0,0,0,0,0,0,0,0,0,0,-0.0109,-0.0108,-0.0067,-0.0067,-0.0066,-0.0004,-0.0003,-0.0002,0.0038,0.0038,0.0038,0.0039,0.011,0.0112,0.0114,0,0,0,0,0,0,0,0,0,0,0,0,0,-0.0073,-0.0108,-0.0068,-0.0038,-0.0035,-0.0004,-0.0003,-0.0002,0.0037,0.0038,0.0038,0.0039,0.0109,0.0112,0.0114,0.0121,0,0,0.0122,0.0123,0,0,0,0,0,0,0,0,-0.0075,-0.0072,-0.0043,-0.004,-0.0036,0.001,0.0009,0.004,0.0037,0.001,0.0038,0.0039,0.0078,0.0083,0.0093,0.0124,0.0127,0.0122,0.0123,0.0125,0.0125,0,0,0,0,0,0,0,-0.0078,-0.0074,-0.0043,-0.0042,-0.0038,-0.0012,-0.0007,0.0015,0.004,0.0012,0.0015,0.0023,0.008,0.009,0.0095,0.0129,0.0122,0.0124,0.0126,0.0127,0.0211,0.0212,0,0,0,0,0,0,-0.0087,-0.0077,-0.0045,-0.0041,-0.0054,-0.0012,-0.0006,-0.0006,0.004,0.0047,0.0023,0.0025,0.0086,0.0092,0.0098,0.0134,0.0125,0.0127,0.0128,0.021,0.0211,0.0212,0,0,0,0,0,0,-0.0089,-0.0086,-0.0047,-0.0056,-0.005,-0.0012,-0.0011,-0.0005,0.0008,0.0048,0.0056,0.0028,0.0086,0.0094,0.0122,0.0136,0.0128,0.013,0.0209,0.0211,0.0212,0.0189,0,0,0,0,0,0,-0.009,-0.0087,-0.0092,-0.0057,-0.0049,-0.0034,-0.0012,-0.0004,0.0012,0.0015,0.0055,0.0062,0.0087,0.0118,0.0124,0.0139,0.0132,0.0209,0.021,0.0211,0.0189,0.019,0.019,0,0,0,0,0,-0.0092,-0.0103,-0.0093,-0.0089,-0.0058,-0.0034,-0.0028,0.0001,0.0012,0.0014,0.0046,0.0061,0.0132,0.012,0.0128,0.0143,0.0208,0.021,0.0211,0.0189,0.0189,0.019,0,0,0,0,0,0,-0.0126,-0.0099,-0.0087,-0.009,-0.0065,-0.0027,-0.0024,-0.0003,0.0024,0.0026,0.0065,0.0074,0.0106,0.0126,0.0113,0.0174,0.0175,0.0178,0.0156,0.0157,0.0157,0.0159,0.0134,0,0,0,0,0,-0.0136,-0.0137,-0.0104,-0.0107,-0.0097,-0.0061,-0.0049,-0.0029,0.0001,0.0013,0.0044,0.0081,0.0118,0.0137,0.0167,0.0194,0.0221,0.0212,0.0213,0.0213,0.0221,0.0273,0.0279,0.0218,0.0218,0.0218,0,0,-0.0151,-0.0136,-0.0137,-0.0114,-0.0094,-0.008,-0.0053,-0.0038,-0.0019,0.0016,0.0045,0.0079,0.0125,0.016,0.0177,0.0179,0.0242,0.0215,0.0214,0.0223,0.0275,0.0281,0.0287,0.0219,0.0219,0.0218,0,0,-0.018,-0.0168,-0.0176,-0.0156,-0.0128,-0.01,-0.0097,-0.0059,-0.0036,-0.0007,0.0032,0.0078,0.0117,0.0169,0.0197,0.0218,0.024,0.0222,0.0229,0.0278,0.0284,0.0289,0.0317,0.0325,0.0225,0.0225,0.0225,0,-0.0199,-0.0202,-0.0174,-0.0172,-0.0155,-0.0111,-0.0107,-0.0076,-0.0031,-0.0006,-0.0003,0.0092,0.013,0.0199,0.021,0.0221,0.0239,0.0219,0.0278,0.0284,0.029,0.0317,0.0326,0.0224,0.0224,0.0224,0.0224,0,-0.0228,-0.0226,-0.0229,-0.0208,-0.0186,-0.0178,-0.0127,-0.0101,-0.0069,-0.0029,0.0034,0.0092,0.0152,0.0175,0.0199,0.0264,0.0259,0.0268,0.0273,0.0294,0.0322,0.0332,0.0223,0.0223,0.0223,0.0223,0,0,-0.0277,-0.0256,-0.0256,-0.0254,-0.0204,-0.0194,-0.0152,-0.01,-0.0075,-0.0016,0.0027,0.0114,0.0149,0.0185,0.023,0.0282,0.0336,0.0287,0.029,0.0307,0.0426,0.0463,0.0477,0.0346,0.0348,0.0349,0.0423,0,-0.0307,-0.0323,-0.0289,-0.0288,-0.0289,-0.0226,-0.0195,-0.0139,-0.0085,-0.0034,0.0058,0.0108,0.0152,0.0176,0.0241,0.0313,0.0362,0.0314,0.041,0.0412,0.0438,0.049,0.041,0.0474,0.0433,0.0435,0.0436,0,-0.0341,-0.0347,-0.0359,-0.0334,-0.0327,-0.0312,-0.0251,-0.0218,-0.0119,-0.0079,0.0008,0.0071,0.0178,0.0195,0.0345,0.0306,0.0365,0.0419,0.0423,0.0476,0.0469,0.0451,0.0493,0.0452,0.0451,0.045,0.0449,0,-0.0397,-0.0391,-0.0407,-0.0398,-0.036,-0.0346,-0.0318,-0.0233,-0.021,-0.0105,-0.0078,0.0058,0.0117,0.0227,0.0353,0.0344,0.0499,0.05,0.0591,0.0592,0.0557,0.0553,0.0599,0.0599,0.0598,0.0598,0.0598,0,-0.0439,-0.0449,-0.0441,-0.0449,-0.0468,-0.0409,-0.0404,-0.0351,-0.0278,-0.0246,-0.0113,-0.0057,0.0125,0.024,0.0347,0.0508,0.05,0.0611,0.0629,0.0546,0.0541,0.0548,0.0541,0.0601,0.06,0.06,0.0599,0,-0.049,-0.0483,-0.0508,-0.0495,-0.0498,-0.0512,-0.0489,-0.0487,-0.0395,-0.0348,-0.0318,-0.0141,0.0033,0.0207,0.0394,0.0499,0.0642,0.0689,0.0576,0.0581,0.0698,0.0689,0.0813,0.0816,0.0818,0.0819,0.0821,0,-0.0515,-0.0535,-0.0566,-0.0607,-0.0606,-0.0621,-0.064,-0.0564,-0.0553,-0.0398,-0.0386,-0.0191,-0.0034,0.0268,0.0467,0.0679,0.0686,0.0728,0.0724,0.0723,0.0728,0.0716,0.0704,0.0651,0.0651,0.0651,0.0651,0,-0.0561,-0.0576,-0.0607,-0.0705,-0.0747,-0.0785,-0.0791,-0.0797,-0.069,-0.0607,-0.0459,-0.0307,0.0013,0.0257,0.0541,0.0648,0.0699,0.0736,0.0772,0.0619,0.058,0.0581,0.0573,0.065,0.065,0.065,0.065,0.065,-0.0596,-0.0646,-0.0711,-0.0804,-0.0872,-0.0934,-0.0961,-0.0933,-0.0886,-0.074,-0.0559,-0.0316,-0.0037,0.0361,0.0554,0.072,0.0746,0.0774,0.077,0.0767,0.0746,0.0714,0.0803,0.0803,0.0804,0.0805,0.0806,0,-0.064,-0.0704,-0.081,-0.0916,-0.1027,-0.1025,-0.1059,-0.1061,-0.1006,-0.0808,-0.062,-0.0324,-0.0003,0.0276,0.054,0.0736,0.0695,0.0755,0.0657,0.0657,0.0658,0.0627,0.0654,0.0655,0.0655,0.0655,0,0,-0.0664,-0.0772,-0.0845,-0.1039,-0.1117,-0.1218,-0.1238,-0.1195,-0.1079,-0.0902,-0.0695,-0.0386,-0.0011,0.0148,0.0383,0.052,0.0531,0.052,0.0617,0.0471,0.0469,0.0644,0.0596,0,0,0,0,0]}],[{"header":{"parameterUnit":"m.s-1","parameterCategory":2,"la1":30.2991,"la2":30.254,"lo1":-89.0895,"lo2":-89.0444,"dy":0.0017,"dx":0.0017,"nx":28,"ny":28,"refTime":"2025-03-13T21:00:00:Z","depth":"4","parameterNumber":2,"parameterNumberName":"U-component_of_CURRENTS"},"data":[0,0,0,0,0,0,0,0,0,0,0,0,0,0,0,0,0,0,0,0,0,0,0,0,0,0,0,0,0,0,0,0,0,0,0,0,0,0,0,0,0,0,0,0,0,0,0,0,0,0,0,0,0,0,0,0,0,0,-0.1213,-0.1214,0,-0.1266,-0.1266,-0.1267,-0.1299,-0.1299,-0.1299,-0.13,-0.1317,-0.1317,-0.1317,0,0,0,0,0,0,0,0,0,0,0,0,0,-0.1122,-0.1124,-0.1213,-0.1214,-0.1214,-0.1266,-0.1266,-0.1267,-0.1299,-0.1299,-0.1299,-0.13,-0.1317,-0.1317,-0.1317,0,0,0,0,0,0,0,0,0,0,0,0,0,-0.1165,-0.1124,-0.1213,-0.1238,-0.1241,-0.1266,-0.1266,-0.1267,-0.1299,-0.1299,-0.13,-0.13,-0.1317,-0.1317,-0.1317,-0.1309,0,0,-0.1318,-0.1318,0,0,0,0,0,0,0,0,-0.1163,-0.1168,-0.1233,-0.1236,-0.1239,-0.1278,-0.1241,-0.128,-0.1299,-0.1275,-0.13,-0.13,-0.1301,-0.1303,-0.131,-0.131,-0.1311,-0.1318,-0.1318,-0.1319,-0.1319,0,0,0,0,0,0,0,-0.116,-0.1166,-0.1232,-0.1234,-0.1238,-0.1241,-0.1247,-0.1248,-0.1283,-0.1277,-0.128,-0.1288,-0.1303,-0.131,-0.131,-0.1311,-0.1318,-0.1318,-0.1319,-0.1319,-0.133,-0.133,0,0,0,0,0,0,-0.1158,-0.1164,-0.123,-0.1234,-0.1204,-0.1242,-0.125,-0.1263,-0.1284,-0.1288,-0.1288,-0.129,-0.1309,-0.131,-0.1311,-0.1341,-0.1319,-0.1319,-0.1319,-0.133,-0.133,-0.133,0,0,0,0,0,0,-0.1156,-0.1163,-0.1228,-0.1201,-0.121,-0.1244,-0.1259,-0.1264,-0.1293,-0.1293,-0.1296,-0.1314,-0.1309,-0.1311,-0.133,-0.134,-0.1319,-0.1319,-0.133,-0.133,-0.133,-0.1375,0,0,0,0,0,0,-0.1153,-0.1162,-0.118,-0.1201,-0.1211,-0.1258,-0.1259,-0.1265,-0.1297,-0.1301,-0.1316,-0.1317,-0.131,-0.133,-0.133,-0.134,-0.1319,-0.133,-0.133,-0.133,-0.1374,-0.1377,-0.138,0,0,0,0,0,-0.1149,-0.117,-0.1181,-0.1189,-0.1232,-0.1259,-0.1265,-0.1288,-0.1298,-0.1315,-0.1325,-0.1317,-0.1331,-0.1331,-0.1331,-0.1341,-0.133,-0.133,-0.133,-0.1372,-0.1377,-0.138,0,0,0,0,0,0,-0.114,-0.1176,-0.1188,-0.1219,-0.1244,-0.1265,-0.1287,-0.1301,-0.1323,-0.133,-0.1327,-0.1329,-0.1345,-0.1336,-0.1336,-0.1343,-0.1326,-0.1326,-0.1358,-0.1361,-0.1365,-0.1363,-0.1319,0,0,0,0,0,-0.1146,-0.1173,-0.1202,-0.1228,-0.1243,-0.1269,-0.1286,-0.1303,-0.1321,-0.1333,-0.1343,-0.1345,-0.1343,-0.1349,-0.1346,-0.1358,-0.1358,-0.1361,-0.1364,-0.1367,-0.1365,-0.1391,-0.1397,-0.1332,-0.1332,-0.1332,0,0,-0.1149,-0.1173,-0.1188,-0.1228,-0.125,-0.1274,-0.1281,-0.1316,-0.1335,-0.133,-0.1363,-0.1361,-0.1348,-0.1358,-0.1364,-0.1357,-0.1384,-0.1367,-0.137,-0.1366,-0.1392,-0.1399,-0.1405,-0.1332,-0.1332,-0.1332,0,0,-0.116,-0.1192,-0.1214,-0.1239,-0.1279,-0.1294,-0.1309,-0.1342,-0.1361,-0.1388,-0.1382,-0.1387,-0.1397,-0.1385,-0.1379,-0.1396,-0.1399,-0.1399,-0.1419,-0.1445,-0.1451,-0.1456,-0.146,-0.1466,-0.1402,-0.1402,-0.1402,0,-0.1162,-0.1194,-0.1225,-0.1251,-0.1272,-0.1305,-0.1328,-0.1351,-0.1386,-0.1397,-0.1405,-0.1414,-0.1403,-0.1404,-0.1407,-0.1403,-0.142,-0.1409,-0.1451,-0.1456,-0.1461,-0.1464,-0.1469,-0.1404,-0.1404,-0.1404,-0.1404,0,-0.1181,-0.1215,-0.1231,-0.1274,-0.1301,-0.1329,-0.1362,-0.1392,-0.1417,-0.1432,-0.1453,-0.1447,-0.1452,-0.1445,-0.1432,-0.1453,-0.1454,-0.1454,-0.1446,-0.1471,-0.1472,-0.1477,-0.1408,-0.1407,-0.1406,-0.1406,0,0,-0.1155,-0.123,-0.1235,-0.1263,-0.1316,-0.1339,-0.1377,-0.1411,-0.1445,-0.1466,-0.1498,-0.1482,-0.1491,-0.1482,-0.1473,-0.1486,-0.1524,-0.1491,-0.1491,-0.1503,-0.1583,-0.1507,-0.1505,-0.1551,-0.1552,-0.1553,-0.157,0,-0.1158,-0.1206,-0.1244,-0.1292,-0.1317,-0.1363,-0.1401,-0.1439,-0.1472,-0.1513,-0.1505,-0.1531,-0.1503,-0.1519,-0.1528,-0.1527,-0.154,-0.1519,-0.155,-0.155,-0.1487,-0.1509,-0.1556,-0.1573,-0.1574,-0.1575,-0.1575,0,-0.1153,-0.1188,-0.1231,-0.1308,-0.1326,-0.1362,-0.143,-0.1471,-0.1525,-0.1556,-0.1577,-0.1587,-0.1593,-0.1581,-0.1592,-0.159,-0.159,-0.1585,-0.1586,-0.1502,-0.1483,-0.1543,-0.1584,-0.1583,-0.1583,-0.1582,-0.1582,0,-0.1103,-0.1178,-0.1212,-0.1235,-0.1324,-0.1357,-0.1409,-0.1476,-0.1526,-0.1586,-0.1632,-0.1641,-0.1665,-0.1665,-0.1645,-0.1639,-0.1665,-0.1653,-0.1579,-0.1573,-0.1617,-0.1611,-0.1671,-0.1671,-0.1671,-0.1671,-0.1671,0,-0.1075,-0.1108,-0.1197,-0.1214,-0.127,-0.1343,-0.1416,-0.1468,-0.1561,-0.1622,-0.1655,-0.1694,-0.1697,-0.1707,-0.1678,-0.1636,-0.1692,-0.158,-0.1576,-0.1633,-0.1629,-0.162,-0.1614,-0.1672,-0.1672,-0.1672,-0.1671,0,-0.1008,-0.107,-0.1114,-0.1209,-0.1246,-0.1284,-0.1422,-0.1478,-0.1577,-0.166,-0.1686,-0.175,-0.1759,-0.1745,-0.1741,-0.1676,-0.1643,-0.1618,-0.1674,-0.1673,-0.1524,-0.152,-0.1532,-0.1529,-0.1527,-0.1525,-0.1524,0,-0.0978,-0.0993,-0.109,-0.1122,-0.1167,-0.1253,-0.132,-0.1455,-0.1522,-0.1678,-0.1705,-0.1764,-0.1784,-0.1706,-0.17,-0.1639,-0.1618,-0.1588,-0.155,-0.1517,-0.1512,-0.1511,-0.151,-0.152,-0.152,-0.1519,-0.1519,0,-0.0908,-0.0948,-0.0981,-0.1037,-0.1106,-0.1196,-0.1304,-0.1358,-0.152,-0.1629,-0.1688,-0.1688,-0.1701,-0.1658,-0.1625,-0.1579,-0.1595,-0.1566,-0.1569,-0.1533,-0.1504,-0.1501,-0.1502,-0.1512,-0.1513,-0.1513,-0.1514,0,-0.0854,-0.0849,-0.0891,-0.0932,-0.102,-0.1098,-0.1188,-0.1288,-0.1382,-0.1572,-0.1583,-0.1641,-0.1704,-0.163,-0.1597,-0.1546,-0.1515,-0.1453,-0.1462,-0.147,-0.1436,-0.139,-0.1359,0,0,0,0,0,-0.0785,-0.0758,-0.0788,-0.0829,-0.0919,-0.0975,-0.1152,-0.1255,-0.1428,-0.1441,-0.1519,-0.1528,-0.1508,-0.1524,-0.145,-0.1539,-0.1498,-0.1447,-0.1427,-0.1472,-0.148,-0.1443,0,0,0,0,0,0,-0.0733,-0.074,-0.0735,-0.0731,-0.0748,-0.085,-0.0968,-0.1104,-0.1136,-0.1305,-0.1294,-0.1411,-0.1393,-0.1497,-0.1398,-0.1403,-0.1361,-0.1487,-0.1483,-0.1467,-0.1475,-0.1481,-0.1446,0,0,0,0,0]},{"header":{"parameterUnit":"m.s-1","parameterCategory":2,"la1":30.2991,"la2":30.254,"lo1":-89.0895,"lo2":-89.0444,"dy":0.0017,"dx":0.0017,"nx":28,"ny":28,"refTime":"2025-03-13T21:00:00:Z","depth":"4","parameterNumber":3,"parameterNumberName":"V-component_of_CURRENTS"},"data":[0,0,0,0,0,0,0,0,0,0,0,0,0,0,0,0,0,0,0,0,0,0,0,0,0,0,0,0,0,0,0,0,0,0,0,0,0,0,0,0,0,0,0,0,0,0,0,0,0,0,0,0,0,0,0,0,0,0,-0.0197,-0.0196,0,-0.0154,-0.0154,-0.0153,-0.0132,-0.0131,-0.0131,-0.0131,-0.0087,-0.0086,-0.0085,0,0,0,0,0,0,0,0,0,0,0,0,0,-0.0227,-0.0227,-0.0197,-0.0196,-0.0196,-0.0154,-0.0154,-0.0153,-0.0132,-0.0131,-0.0131,-0.0131,-0.0088,-0.0086,-0.0085,0,0,0,0,0,0,0,0,0,0,0,0,0,-0.0202,-0.0227,-0.0197,-0.018,-0.0178,-0.0154,-0.0154,-0.0153,-0.0132,-0.0131,-0.0131,-0.0131,-0.0088,-0.0086,-0.0085,-0.0075,0,0,-0.0079,-0.0079,0,0,0,0,0,0,0,0,-0.0204,-0.0201,-0.0183,-0.0181,-0.0179,-0.0148,-0.0148,-0.0127,-0.0132,-0.0149,-0.0131,-0.0131,-0.0107,-0.0104,-0.0096,-0.0073,-0.0071,-0.0079,-0.0078,-0.0077,-0.0077,0,0,0,0,0,0,0,-0.0206,-0.0203,-0.018,-0.0182,-0.018,-0.0163,-0.016,-0.0144,-0.0129,-0.0148,-0.0146,-0.0141,-0.0106,-0.0098,-0.0095,-0.0071,-0.0079,-0.0078,-0.0077,-0.0076,-0.0039,-0.0039,0,0,0,0,0,0,-0.0212,-0.0205,-0.0182,-0.0179,-0.0191,-0.0163,-0.0159,-0.0158,-0.0129,-0.0125,-0.0141,-0.014,-0.0101,-0.0097,-0.0094,-0.008,-0.0078,-0.0076,-0.0075,-0.0039,-0.0039,-0.0039,0,0,0,0,0,0,-0.0213,-0.0211,-0.0183,-0.019,-0.0186,-0.0162,-0.0161,-0.0157,-0.0149,-0.0124,-0.012,-0.0137,-0.0101,-0.0096,-0.0078,-0.0078,-0.0075,-0.0074,-0.0039,-0.0039,-0.0039,-0.0054,0,0,0,0,0,0,-0.0214,-0.0211,-0.0215,-0.0191,-0.0186,-0.0172,-0.0161,-0.0156,-0.0146,-0.0144,-0.0119,-0.0115,-0.01,-0.0081,-0.0077,-0.0076,-0.0072,-0.0039,-0.0039,-0.0039,-0.0053,-0.0054,-0.0055,0,0,0,0,0,-0.0216,-0.0221,-0.0216,-0.0213,-0.0191,-0.0172,-0.0167,-0.015,-0.0146,-0.0143,-0.0125,-0.0116,-0.0079,-0.0079,-0.0074,-0.0073,-0.0039,-0.0039,-0.0039,-0.0053,-0.0054,-0.0055,0,0,0,0,0,0,-0.0239,-0.0219,-0.0212,-0.0213,-0.0195,-0.0168,-0.0166,-0.0152,-0.0136,-0.0136,-0.0113,-0.0107,-0.0093,-0.0082,-0.0083,-0.0064,-0.0059,-0.0058,-0.0071,-0.0072,-0.0073,-0.0084,-0.0071,0,0,0,0,0,-0.0246,-0.0245,-0.022,-0.0222,-0.0214,-0.019,-0.0181,-0.0169,-0.015,-0.0142,-0.0122,-0.0105,-0.0089,-0.008,-0.0064,-0.0052,-0.003,-0.0049,-0.005,-0.0051,-0.0057,-0.0016,-0.0014,-0.004,-0.004,-0.004,0,0,-0.0257,-0.0245,-0.0246,-0.0227,-0.0213,-0.0207,-0.0185,-0.0174,-0.0169,-0.014,-0.0129,-0.0107,-0.0087,-0.0072,-0.0065,-0.0063,-0.0032,-0.0051,-0.0052,-0.0058,-0.0016,-0.0013,-0.0011,-0.004,-0.004,-0.004,0,0,-0.0278,-0.0267,-0.0273,-0.0259,-0.0238,-0.0221,-0.0219,-0.0191,-0.0179,-0.0162,-0.0142,-0.0121,-0.0096,-0.008,-0.0069,-0.0068,-0.0039,-0.0062,-0.0074,-0.0034,-0.0031,-0.0029,0.0004,0.0009,-0.0062,-0.0062,-0.0062,0,-0.0295,-0.0298,-0.0271,-0.0271,-0.0266,-0.0231,-0.0236,-0.0216,-0.0185,-0.0174,-0.0163,-0.0119,-0.0102,-0.0083,-0.0081,-0.0071,-0.0042,-0.0071,-0.0035,-0.0032,-0.0029,0.0004,0.001,-0.0063,-0.0063,-0.0063,-0.0063,0,-0.0317,-0.0321,-0.0322,-0.0312,-0.03,-0.0299,-0.0267,-0.0251,-0.023,-0.0205,-0.0177,-0.0145,-0.0117,-0.0108,-0.0094,-0.0067,-0.0051,-0.004,-0.0031,-0.0027,0.0007,0.0014,-0.0064,-0.0063,-0.0063,-0.0063,0,0,-0.0354,-0.0343,-0.0345,-0.0353,-0.0324,-0.032,-0.0304,-0.0281,-0.027,-0.0231,-0.0213,-0.0179,-0.0149,-0.0136,-0.0108,-0.0076,-0.003,-0.005,-0.0047,-0.0017,0.0062,0.0078,0.0087,-0.0003,-0.0002,-0.0001,0.0079,0,-0.0385,-0.0406,-0.0383,-0.0402,-0.0411,-0.0372,-0.0361,-0.0331,-0.0294,-0.0263,-0.0217,-0.0189,-0.0162,-0.0145,-0.0106,-0.0049,-0.0012,-0.0053,0.0053,0.0055,0.007,0.0095,0.0002,0.0084,0.0086,0.0087,0.0088,0,-0.0412,-0.0426,-0.0455,-0.0454,-0.0453,-0.0453,-0.0429,-0.0411,-0.0349,-0.0318,-0.0268,-0.0221,-0.0168,-0.0146,-0.0042,-0.0064,-0.0005,0.0039,0.0044,0.0066,0.0084,0.0079,0.0101,0.01,0.0099,0.0098,0.0097,0,-0.0459,-0.0473,-0.0504,-0.0504,-0.0493,-0.0496,-0.0484,-0.0432,-0.0418,-0.0348,-0.032,-0.0243,-0.0197,-0.0117,-0.001,-0.0022,0.0111,0.0106,0.0174,0.0175,0.0142,0.0139,0.0178,0.0178,0.0178,0.0178,0.0178,0,-0.0496,-0.052,-0.0533,-0.0549,-0.0585,-0.0548,-0.0558,-0.0525,-0.0472,-0.0445,-0.0352,-0.0304,-0.0184,-0.0086,-0.0006,0.0116,0.0121,0.0176,0.0201,0.0134,0.0129,0.0148,0.0143,0.0181,0.018,0.018,0.0179,0,-0.0533,-0.0541,-0.0584,-0.0599,-0.0609,-0.0632,-0.0624,-0.0623,-0.0551,-0.051,-0.0487,-0.0345,-0.0206,-0.0081,0.0065,0.0125,0.0231,0.0273,0.0199,0.0217,0.0261,0.0255,0.034,0.0341,0.0342,0.0343,0.0344,0,-0.0551,-0.0578,-0.0635,-0.0675,-0.0687,-0.0714,-0.0732,-0.068,-0.0665,-0.0529,-0.0511,-0.0353,-0.0249,-0.0026,0.0103,0.0268,0.0286,0.0334,0.0286,0.0265,0.028,0.0272,0.0264,0.0346,0.0346,0.0347,0.0347,0,-0.0592,-0.0616,-0.0657,-0.0742,-0.0787,-0.0828,-0.0835,-0.0824,-0.0735,-0.0675,-0.0515,-0.0362,-0.0192,-0.0018,0.013,0.024,0.0295,0.0345,0.0342,0.0298,0.0273,0.0285,0.0276,0.0351,0.035,0.035,0.035,0,-0.0627,-0.0672,-0.0734,-0.08,-0.0873,-0.0912,-0.0907,-0.0857,-0.0817,-0.0647,-0.0592,-0.0374,-0.0238,-0.003,0.0101,0.0223,0.0232,0.0239,0.0242,0.0239,0.0186,0.0138,0.0202,0,0,0,0,0,-0.066,-0.0712,-0.0786,-0.0861,-0.0933,-0.0962,-0.0965,-0.0936,-0.0841,-0.0742,-0.0657,-0.0487,-0.0226,-0.0101,0.002,0.0084,0.0225,0.0226,0.0225,0.0372,0.0368,0.0324,0,0,0,0,0,0,-0.0691,-0.0763,-0.0793,-0.0894,-0.0949,-0.1014,-0.1016,-0.0951,-0.0876,-0.0755,-0.0617,-0.0484,-0.0244,-0.0303,0.0014,0.0059,0.0068,0.0364,0.0366,0.0375,0.0371,0.0367,0.032,0,0,0,0,0]}]]